TimeEDT,TemperatureF,Dew PointF,Humidity,Sea Level PressureIn,VisibilityMPH,Wind Direction,Wind SpeedMPH,Gust SpeedMPH,PrecipitationIn,Events,Conditions,WindDirDegrees,DateUTC
12:15 AM,60.8,57.2,88,30.06,10.0,Calm,Calm,-,N/A,,Clear,0,2013-05-17 04:15:00
12:35 AM,59.0,57.2,94,30.06,10.0,Calm,Calm,-,N/A,,Clear,0,2013-05-17 04:35:00
12:55 AM,59.0,57.2,94,30.06,10.0,Calm,Calm,-,N/A,,Clear,0,2013-05-17 04:55:00
1:15 AM,59.0,55.4,88,30.05,10.0,Calm,Calm,-,N/A,,Clear,0,2013-05-17 05:15:00
1:35 AM,59.0,55.4,88,30.05,7.0,Calm,Calm,-,N/A,,Clear,0,2013-05-17 05:35:00
1:55 AM,59.0,55.4,88,30.06,7.0,Calm,Calm,-,N/A,,Clear,0,2013-05-17 05:55:00
2:15 AM,57.2,55.4,94,30.06,5.0,Calm,Calm,-,N/A,,Clear,0,2013-05-17 06:15:00
2:35 AM,57.2,55.4,94,30.06,5.0,Calm,Calm,-,N/A,,Scattered Clouds,0,2013-05-17 06:35:00
2:55 AM,57.2,55.4,94,30.06,4.0,Calm,Calm,-,N/A,,Mostly Cloudy,0,2013-05-17 06:55:00
3:15 AM,57.2,55.4,94,30.07,4.0,Calm,Calm,-,N/A,,Overcast,0,2013-05-17 07:15:00
3:35 AM,57.2,55.4,94,30.07,5.0,Calm,Calm,-,N/A,,Overcast,0,2013-05-17 07:35:00
3:55 AM,59.0,55.4,88,30.07,7.0,Calm,Calm,-,N/A,,Overcast,0,2013-05-17 07:55:00
4:15 AM,59.0,55.4,88,30.07,5.0,East,3.5,-,N/A,,Overcast,90,2013-05-17 08:15:00
4:35 AM,59.0,55.4,88,30.08,7.0,Calm,Calm,-,N/A,,Overcast,0,2013-05-17 08:35:00
4:55 AM,59.0,55.4,88,30.08,7.0,Calm,Calm,-,N/A,,Overcast,0,2013-05-17 08:55:00
5:15 AM,59.0,55.4,88,30.09,7.0,Calm,Calm,-,N/A,,Overcast,0,2013-05-17 09:15:00
5:35 AM,57.2,55.4,94,30.09,7.0,Calm,Calm,-,N/A,,Overcast,0,2013-05-17 09:35:00
5:55 AM,57.2,55.4,94,30.09,7.0,Calm,Calm,-,N/A,,Overcast,0,2013-05-17 09:55:00
6:15 AM,57.2,55.4,94,30.10,7.0,Calm,Calm,-,N/A,,Overcast,0,2013-05-17 10:15:00
6:35 AM,57.2,55.4,94,30.10,5.0,Calm,Calm,-,N/A,,Mostly Cloudy,0,2013-05-17 10:35:00
6:55 AM,55.4,55.4,100,30.11,5.0,Calm,Calm,-,N/A,,Clear,0,2013-05-17 10:55:00
7:15 AM,57.2,55.4,94,30.12,4.0,Calm,Calm,-,N/A,,Scattered Clouds,0,2013-05-17 11:15:00
7:35 AM,59.0,55.4,88,30.12,7.0,East,4.6,-,N/A,,Mostly Cloudy,90,2013-05-17 11:35:00
7:55 AM,59.0,55.4,88,30.12,10.0,Calm,Calm,-,N/A,,Mostly Cloudy,0,2013-05-17 11:55:00
8:15 AM,60.8,55.4,82,30.12,10.0,Calm,Calm,-,N/A,,Scattered Clouds,0,2013-05-17 12:15:00
8:35 AM,62.6,57.2,82,30.13,10.0,Calm,Calm,-,N/A,,Mostly Cloudy,0,2013-05-17 12:35:00
8:55 AM,64.4,57.2,77,30.12,10.0,Calm,Calm,-,N/A,,Overcast,0,2013-05-17 12:55:00
9:15 AM,64.4,57.2,77,30.12,10.0,Calm,Calm,-,N/A,,Mostly Cloudy,0,2013-05-17 13:15:00
9:35 AM,68.0,57.2,68,30.13,10.0,Calm,Calm,-,N/A,,Clear,0,2013-05-17 13:35:00
9:55 AM,68.0,59.0,73,30.12,10.0,Calm,Calm,-,N/A,,Clear,0,2013-05-17 13:55:00
10:15 AM,69.8,59.0,68,30.12,10.0,Calm,Calm,-,N/A,,Clear,0,2013-05-17 14:15:00
10:35 AM,69.8,59.0,68,30.12,10.0,Calm,Calm,-,N/A,,Clear,0,2013-05-17 14:35:00
10:55 AM,71.6,59.0,64,30.12,10.0,Calm,Calm,-,N/A,,Clear,0,2013-05-17 14:55:00
11:15 AM,73.4,55.4,53,30.12,10.0,Calm,Calm,-,N/A,,Clear,0,2013-05-17 15:15:00
11:35 AM,73.4,57.2,57,30.12,10.0,Calm,Calm,-,N/A,,Clear,0,2013-05-17 15:35:00
11:55 AM,77.0,55.4,47,30.12,10.0,Calm,Calm,-,N/A,,Clear,0,2013-05-17 15:55:00
12:15 PM,77.0,57.2,50,30.12,10.0,Calm,Calm,-,N/A,,Clear,0,2013-05-17 16:15:00
12:35 PM,77.0,59.0,54,30.12,10.0,WSW,3.5,-,N/A,,Scattered Clouds,250,2013-05-17 16:35:00
12:55 PM,77.0,57.2,50,30.11,10.0,West,3.5,-,N/A,,Clear,280,2013-05-17 16:55:00
1:15 PM,77.0,55.4,47,30.11,10.0,West,3.5,-,N/A,,Clear,270,2013-05-17 17:15:00
1:35 PM,78.8,57.2,47,30.11,10.0,Calm,Calm,-,N/A,,Clear,0,2013-05-17 17:35:00
1:55 PM,77.0,57.2,50,30.10,10.0,East,3.5,-,N/A,,Scattered Clouds,90,2013-05-17 17:55:00
2:15 PM,77.0,57.2,50,30.10,10.0,Calm,Calm,-,N/A,,Mostly Cloudy,0,2013-05-17 18:15:00
2:35 PM,77.0,55.4,47,30.10,10.0,NE,3.5,-,N/A,,Scattered Clouds,40,2013-05-17 18:35:00
3:15 PM,78.8,59.0,51,30.08,10.0,SSW,4.6,-,N/A,,Scattered Clouds,210,2013-05-17 19:15:00
3:35 PM,78.8,57.2,47,30.07,10.0,Calm,Calm,-,N/A,,Clear,0,2013-05-17 19:35:00
3:55 PM,78.8,57.2,47,30.07,10.0,Calm,Calm,-,N/A,,Scattered Clouds,0,2013-05-17 19:55:00
4:15 PM,78.8,55.4,44,30.06,10.0,Calm,Calm,-,N/A,,Scattered Clouds,0,2013-05-17 20:15:00
4:35 PM,77.0,55.4,47,30.06,10.0,West,3.5,-,N/A,,Scattered Clouds,270,2013-05-17 20:35:00
4:55 PM,78.8,59.0,51,30.05,10.0,West,3.5,-,N/A,,Scattered Clouds,260,2013-05-17 20:55:00
5:15 PM,77.0,59.0,54,30.06,10.0,West,3.5,-,N/A,,Mostly Cloudy,270,2013-05-17 21:15:00
5:35 PM,77.0,57.2,50,30.06,10.0,West,3.5,-,N/A,,Mostly Cloudy,260,2013-05-17 21:35:00
5:55 PM,77.0,59.0,54,30.06,10.0,Calm,Calm,-,N/A,,Mostly Cloudy,0,2013-05-17 21:55:00
6:15 PM,77.0,57.2,50,30.06,10.0,Calm,Calm,-,N/A,,Scattered Clouds,0,2013-05-17 22:15:00
6:35 PM,75.2,57.2,53,30.05,10.0,WSW,4.6,-,N/A,,Mostly Cloudy,240,2013-05-17 22:35:00
6:55 PM,75.2,57.2,53,30.05,10.0,Calm,Calm,-,N/A,,Overcast,0,2013-05-17 22:55:00
7:15 PM,73.4,59.0,61,30.05,10.0,ESE,3.5,-,N/A,,Mostly Cloudy,120,2013-05-17 23:15:00
7:35 PM,73.4,59.0,61,30.06,10.0,Calm,Calm,-,N/A,,Mostly Cloudy,0,2013-05-17 23:35:00
7:55 PM,73.4,60.8,65,30.06,10.0,Calm,Calm,-,N/A,,Overcast,0,2013-05-17 23:55:00
8:15 PM,71.6,60.8,69,30.06,10.0,Calm,Calm,-,N/A,,Overcast,0,2013-05-18 00:15:00
8:35 PM,71.6,59.0,64,30.06,10.0,Calm,Calm,-,N/A,,Overcast,0,2013-05-18 00:35:00
8:55 PM,69.8,60.8,73,30.07,10.0,North,-9999.0,-,N/A,,Overcast,0,2013-05-18 00:55:00
9:15 PM,69.8,60.8,73,30.07,10.0,Calm,Calm,-,N/A,,Mostly Cloudy,0,2013-05-18 01:15:00
9:35 PM,69.8,60.8,73,30.08,10.0,NNE,9.2,-,N/A,,Overcast,30,2013-05-18 01:35:00
9:55 PM,69.8,60.8,73,30.08,10.0,SE,4.6,-,N/A,,Overcast,130,2013-05-18 01:55:00
10:15 PM,68.0,60.8,78,30.08,10.0,Calm,Calm,-,N/A,,Overcast,0,2013-05-18 02:15:00
10:35 PM,68.0,60.8,78,30.08,10.0,Calm,Calm,-,N/A,,Overcast,0,2013-05-18 02:35:00
10:55 PM,68.0,60.8,78,30.09,10.0,Calm,Calm,-,N/A,,Overcast,0,2013-05-18 02:55:00
11:15 PM,68.0,60.8,78,30.08,10.0,Calm,Calm,-,N/A,,Overcast,0,2013-05-18 03:15:00
11:35 PM,66.2,60.8,83,30.08,10.0,Calm,Calm,-,N/A,,Overcast,0,2013-05-18 03:35:00
11:55 PM,66.2,60.8,83,30.08,10.0,Calm,Calm,-,N/A,,Overcast,0,2013-05-18 03:55:00